NJUST-1

Last updated on Sun Jul 21 2019 00:02:09 GMT+0000 (Coordinated Universal Time)

1 42722U 98067MB 19201.13118119 .02828887 12202-4 39331-3 0 9991 2 42722 51.6139 97.9553 0012743 244.1662 264.8455 16.33980456123504

Satellite not in orbit